Presure
246 238 249 111 118 97 78 100 125 101 141 87 109 110 114 109 105 111 109 113 117 178 117 130 143 202 207 205 157 190 191 193 187 185 187 182 180 182 182 187 193 189 177
280 245 241 246 204 195 180 121 178 189 102 117 190 209 112 111 103 105 94 89 134 167 109 129 185 111 110 202 193 194 183 176 186 184 179 174 183 177 164 163 170 180 184
270 278 231 239 239 198 192 182 176 145 107 105 111 126 79 97 108 91 109 108 126 167 154 188 110 111 199 197 183 144 190 187 180 180 172 187 180 172 180 178 179 179 180
85 265 266 230 240 110 200 175 93 164 177 192 183 109 194 111 114 111 108 189 194 213 213 184 204 167 189 191 192 185 190 186 179 186 186 176 177 172 154 171 175 188 187
247 263 251 229 238 230 194 194 193 144 106 196 183 134 118 111 104 107 114 219 211 210 202 204 195 194 192 182 192 191 190 182 180 182 184 172 179 173 178 158 154 181 183
150 245 258 257 194 239 182 201 200 191 170 203 174 193 176 191 188 187 219 209 212 203 205 197 195 189 195 188 192 187 189 185 192 178 180 180 177 174 175 186 184 196 194
235 245 251 264 225 115 80 202 202 194 172 195 179 184 179 180 186 213 198 211 205 204 196 197 192 193 190 192 189 187 185 184 182 182 180 168 179 186 190 201 203 218 271
239 222 249 259 74 223 239 218 202 193 184 172 184 177 173 184 186 180 188 176 205 202 202 195 190 194 193 187 193 185 187 191 190 183 182 186 186 195 204 211 221 270 236
218 82 181 259 257 222 235 229 207 193 189 177 182 174 173 184 188 180 182 212 205 203 201 191 192 187 192 187 182 192 187 188 185 184 184 191 198 201 212 226 261 229 280
235 189 249 258 271 224 229 231 204 196 190 181 183 175 181 177 181 178 173 209 205 207 202 195 194 186 183 197 192 188 186 183 182 191 190 199 198 212 228 263 232 268 270
131 235 244 255 270 225 232 230 205 199 190 183 184 177 178 174 176 175 173 205 209 210 200 196 198 190 193 191 181 185 175 187 190 195 197 199 211 231 251 253 274 268 245
226 232 242 262 275 225 229 225 215 202 192 186 185 179 175 171 176 177 205 204 209 196 194 189 190 189 176 183 182 184 189 190 199 193 203 212 236 229 263 271 253 224 221
233 246 248 262 269 223 228 225 214 205 193 188 184 179 178 178 180 187 207 209 199 199 196 190 182 181 184 174 189 175 192 199 189 207 216 249 211 175 247 236 213 211 222
237 246 249 263 260 216 231 221 205 201 192 189 189 182 184 181 181 196 208 206 199 186 186 183 180 181 179 188 170 195 193 195 208 224 227 214 272 258 211 206 191 228 239
260 254 255 276 230 219 229 216 205 192 187 188 182 188 181 180 187 205 209 200 189 188 183 182 177 186 185 190 196 189 201 207 226 225 258 275 234 207 202 215 232 239 266
283 270 271 292 218 232 222 213 200 184 186 174 187 182 179 181 192 202 198 187 188 183 184 181 186 192 184 195 187 203 215 239 224 267 270 212 213 208 224 230 238 273 333
141 287 217 222 225 229 216 203 188 186 179 187 182 178 185 191 203 185 185 190 184 182 184 149 189 190 193 195 204 225 253 233 274 235 198 210 212 227 232 242 282 327 392
281 289 226 183 188 176 207 195 189 178 186 180 175 181 187 189 184 187 185 184 186 186 187 190 192 191 161 214 243 226 278 263 222 205 202 209 223 231 265 317 326 523 493
269 219 221 230 220 210 201 190 186 183 180 174 180 180 174 182 184 182 181 185 185 182 194 190 206 140 222 243 254 282 221 208 202 186 208 216 228 268 324 327 532 487 444
215 217 217 217 215 209 193 185 180 179 172 178 177 179 184 183 181 185 186 190 183 191 198 203 224 244 218 291 249 221 192 160 206 208 219 238 309 327 322 540 485 432 386
205 225 226 220 211 183 187 180 176 172 178 174 180 181 177 166 150 190 187 193 193 208 210 208 228 284 263 219 209 190 181 214 215 222 246 306 322 587 526 476 424 385 369
220 227 223 217 191 183 172 176 168 174 172 174 155 183 184 188 190 192 188 205 205 240 206 217 273 231 217 200 169 210 214 215 224 262 307 311 560 520 471 416 382 364 361
223 182 188 178 173 171 176 178 172 177 174 176 184 187 189 194 188 152 207 141 245 210 285 245 208 202 205 202 208 215 212 223 288 299 312 518 515 468 410 383 359 351 351
180 181 178 177 177 179 177 177 133 124 185 188 188 193 189 201 207 156 148 147 278 267 220 220 195 198 206 211 207 209 229 301 295 316 490 513 465 412 383 359 352 346 334
178 182 175 175 177 178 175 182 184 187 189 193 191 202 205 226 135 157 143 276 228 214 192 199 207 203 212 203 211 275 301 305 331 499 531 463 418 373 359 350 323 306 295
179 176 184 182 182 185 187 188 193 194 190 203 203 234 237 195 139 228 153 183 203 194 201 207 206 208 206 244 296 301 292 331 482 547 465 420 367 349 330 314 306 290 300
Wind_Speed
66 70 68 55 56 42 31 44 58 45 57 30 48 50 49 45 43 44 44 49 55 66 56 56 58 70 66 57 62 59 58 55 59 58 57 59 62 62 64 65 70 70 72
51 67 71 71 80 79 69 52 60 61 45 54 54 49 48 46 42 47 46 45 54 63 52 59 63 57 55 57 58 59 62 61 58 60 66 70 66 69 77 79 79 75 78
51 50 73 74 74 80 75 69 60 54 46 44 51 61 32 44 52 45 51 50 52 66 60 57 60 59 57 57 62 53 61 62 63 66 68 63 67 75 78 83 83 83 85
25 51 57 75 72 43 76 68 41 56 60 54 53 52 50 50 55 54 52 59 62 59 57 57 56 61 59 60 62 65 62 62 66 62 63 70 68 71 83 88 93 97 99
53 50 55 77 72 70 72 70 71 56 50 54 53 45 50 52 47 53 54 51 56 54 57 55 57 59 61 63 63 65 64 67 69 67 70 77 75 80 75 82 88 95 101
39 59 58 65 64 69 63 72 69 65 58 51 57 50 56 48 50 52 49 54 52 55 55 57 58 61 62 66 66 68 67 70 70 75 76 78 81 86 88 86 88 91 98
56 58 58 61 73 39 36 70 67 65 61 53 58 54 56 55 52 50 54 53 53 54 57 58 61 63 65 67 68 69 71 74 76 78 81 86 86 87 91 95 96 97 93
57 54 60 61 27 69 66 68 65 63 64 60 57 58 58 54 52 56 57 59 55 56 58 60 62 64 65 68 69 73 75 76 78 80 85 88 89 95 99 102 104 99 97
52 28 48 60 65 68 67 67 63 64 61 60 58 60 58 53 54 57 59 55 57 59 60 61 64 65 67 71 73 75 76 79 80 83 88 92 97 99 106 114 112 105 98
57 50 59 61 64 66 65 65 62 62 60 60 58 59 56 57 55 58 62 56 59 61 62 63 66 66 68 73 75 76 78 81 85 89 92 98 97 109 118 113 114 110 105
37 60 61 63 62 65 61 62 61 60 59 59 56 58 57 57 58 60 63 57 60 62 62 63 67 68 72 73 75 78 82 86 90 94 96 100 109 120 114 113 108 105 106
57 59 58 62 59 61 60 62 61 58 57 58 56 56 57 58 60 61 57 59 60 60 62 63 67 69 73 75 78 82 86 90 96 94 104 112 121 114 110 107 107 105 107
56 56 58 56 59 61 59 59 57 56 55 54 54 55 56 59 59 60 59 61 60 62 62 65 68 72 75 78 82 80 91 96 92 106 113 117 104 81 105 106 103 103 112
58 57 56 54 61 58 57 56 55 53 50 49 48 52 54 57 59 59 61 62 62 63 65 67 71 75 78 82 78 92 92 96 107 116 106 101 106 103 101 103 99 116 124
54 57 56 55 57 53 56 55 51 47 48 48 52 50 54 57 58 60 62 62 64 66 68 72 75 79 81 86 92 90 100 108 115 103 108 103 103 102 101 109 120 126 138
43 51 51 50 52 54 53 50 45 48 48 53 49 51 55 57 59 61 62 63 65 68 72 75 78 83 83 90 88 101 110 111 109 105 101 102 106 106 117 121 129 142 133
37 46 40 48 48 49 47 44 47 48 49 48 49 52 53 57 61 61 63 65 68 71 75 60 82 86 89 93 101 110 105 108 101 100 97 104 109 118 121 130 138 130 114
33 37 46 35 36 35 44 44 46 45 45 47 50 50 54 58 61 63 65 68 71 74 77 82 86 88 77 104 103 104 97 97 100 102 101 107 115 124 134 126 124 60 54
34 41 41 45 43 43 42 42 42 43 45 48 49 52 56 60 62 65 68 71 72 75 83 83 93 68 102 100 99 90 96 98 101 96 110 112 124 135 121 119 56 47 42
35 37 40 39 41 41 38 38 41 43 46 48 51 56 59 62 64 68 71 73 76 80 87 91 100 95 99 84 88 94 92 84 108 111 117 127 124 120 117 52 44 36 43
27 39 40 40 37 34 36 39 42 45 47 50 54 58 60 57 52 70 72 78 80 89 92 79 95 83 83 88 93 94 94 108 112 118 128 123 122 51 51 44 36 38 40
33 38 38 35 31 34 38 41 42 47 49 53 48 60 63 66 70 74 74 84 85 92 79 93 79 83 89 92 84 104 109 110 118 130 120 120 53 48 43 35 36 39 36
34 29 29 34 37 38 42 43 46 51 53 55 60 63 66 71 71 59 82 53 85 88 74 77 84 88 94 97 103 110 110 119 124 117 121 61 46 42 36 32 36 36 31
28 32 36 38 40 41 44 47 35 35 57 60 62 67 69 76 78 56 54 58 75 71 75 80 85 90 97 103 105 109 118 114 111 118 63 44 42 34 31 34 31 30 29
32 37 39 41 43 45 46 50 54 57 59 63 65 72 75 78 47 57 57 67 69 75 79 85 91 94 102 102 110 118 110 114 122 60 42 40 36 33 33 31 32 35 36
37 38 42 44 46 49 52 54 57 60 60 67 71 71 74 67 51 62 63 67 75 78 83 88 93 99 101 113 115 112 109 122 64 42 36 33 31 33 37 38 37 36 37
Wind_Direction
241 239 236 242 246 246 241 255 252 258 257 259 266 270 274 277 277 285 288 294 292 272 290 287 287 287 285 283 291 285 285 288 288 291 289 289 291 291 291 295 298 294 284
246 239 236 234 239 243 248 251 254 255 262 265 262 269 275 277 278 283 278 283 282 278 291 289 285 296 296 281 281 283 286 289 289 287 291 294 291 285 292 292 290 290 291
248 241 235 234 233 240 244 249 250 255 260 262 268 268 273 274 278 277 286 286 283 280 285 280 295 295 280 281 283 287 284 284 287 291 292 296 295 297 295 294 294 292 289
253 238 235 233 232 243 241 245 252 251 253 255 260 271 273 276 279 282 282 274 277 275 275 279 279 286 281 282 283 283 285 286 287 291 290 287 288 288 298 296 297 299 298
242 239 232 232 231 232 239 241 246 254 262 253 260 268 271 276 277 280 282 271 274 274 277 276 279 279 280 283 282 283 286 286 287 289 289 288 287 285 287 289 297 294 293
240 238 235 229 234 230 236 237 242 249 255 251 259 259 267 269 271 274 271 273 271 274 274 277 278 279 280 282 282 284 286 287 288 287 288 288 288 289 292 291 290 292 291
238 239 240 232 232 249 265 236 238 244 252 250 257 261 265 269 271 273 276 272 274 274 275 275 278 280 281 283 285 285 286 287 287 287 288 290 288 290 292 295 295 299 301
236 237 237 234 269 231 229 232 235 241 247 254 255 260 265 268 273 275 278 282 274 274 274 276 280 280 282 287 285 286 287 288 289 287 288 290 292 296 299 300 301 303 300
234 266 244 232 226 226 226 229 231 238 243 251 253 261 267 269 272 276 279 274 275 275 275 279 280 285 284 287 289 287 289 290 291 290 291 296 300 300 303 304 304 301 301
230 238 231 231 228 222 225 227 230 235 241 249 252 260 263 269 273 277 280 277 277 276 277 280 281 286 288 286 288 291 291 291 292 296 298 301 301 305 305 306 304 304 303
242 228 229 229 225 219 221 225 230 234 240 248 251 260 264 271 274 278 282 280 278 278 279 282 283 287 288 290 290 292 291 295 298 301 302 303 306 305 306 306 307 305 301
227 229 230 230 223 218 218 222 227 232 239 246 250 259 266 272 275 278 282 281 280 281 283 287 288 289 290 292 292 294 297 299 303 302 305 306 306 305 306 307 304 302 304
226 225 228 228 218 216 218 222 227 232 240 247 252 260 265 270 275 279 282 280 282 284 287 288 290 291 292 292 297 297 301 303 301 306 305 306 305 303 305 303 304 305 305
223 224 225 223 215 216 215 221 228 233 241 248 253 259 264 270 275 281 282 283 285 287 288 290 291 292 294 297 299 303 302 304 306 305 304 304 307 306 304 303 305 307 307
219 221 220 220 209 215 214 221 228 236 244 249 256 261 267 273 280 283 282 284 286 288 289 290 292 296 298 300 303 302 305 305 305 304 306 307 304 305 306 308 308 309 308
206 217 215 214 208 210 215 223 229 241 245 258 258 264 272 277 283 283 284 286 288 289 291 294 296 299 298 303 301 304 304 304 303 305 306 305 305 308 307 310 311 309 309
223 208 216 203 208 210 218 225 235 242 252 256 263 270 277 282 282 284 286 289 290 291 293 297 299 300 302 303 303 304 304 304 306 305 305 307 307 307 310 311 310 311 312
209 206 200 222 227 239 219 227 237 251 254 262 269 276 280 282 283 286 288 289 291 294 296 298 301 302 302 303 304 303 306 306 305 306 307 308 309 311 309 311 312 315 312
209 200 205 204 208 215 224 235 245 253 261 269 274 278 282 282 285 287 289 291 294 295 298 300 302 302 303 303 305 306 305 306 307 305 308 312 312 309 312 313 317 315 312
195 206 210 210 213 220 231 242 251 259 268 272 275 278 281 283 287 288 291 294 294 298 302 302 303 303 303 306 306 305 308 314 306 308 311 310 312 314 313 318 318 315 315
200 211 210 214 220 235 238 249 258 266 269 273 277 279 284 287 292 293 293 297 299 301 302 303 302 305 305 305 305 307 309 307 308 310 310 313 315 318 318 319 317 317 317
213 216 215 222 229 240 256 257 267 268 274 277 283 283 286 290 291 294 296 299 300 301 302 303 304 305 305 307 309 307 307 310 311 311 315 315 319 317 318 317 317 317 318
219 224 227 240 252 258 259 264 270 273 278 280 282 286 289 292 293 297 299 306 299 302 303 304 304 307 307 310 309 308 311 312 315 315 316 320 319 319 318 319 316 316 320
227 234 243 251 256 260 265 270 282 290 279 283 287 290 291 293 298 303 305 307 302 302 301 304 308 308 308 309 309 312 313 317 315 317 319 320 319 317 317 314 314 317 318
242 240 254 261 264 268 270 273 276 280 284 286 289 292 296 296 305 304 307 302 300 302 308 308 309 309 309 309 309 314 318 320 320 321 322 318 319 318 317 316 316 317 317
251 260 256 262 267 269 272 276 279 282 287 291 295 293 294 298 307 303 306 305 305 307 307 309 309 308 308 315 319 321 319 320 322 322 321 319 316 316 317 319 320 317 314